Time,TemperatureF,DewpointF,PressureIn,WindDirection,WindDirectionDegrees,WindSpeedMPH,WindSpeedGustMPH,Humidity,HourlyPrecipIn,Conditions,Clouds,dailyrainin,SoftwareType,DateUTC
2013-06-17 00:02:00,54.0,29.0,-100.00,SSW,195,2.0,6.0,37,0.00,,,-99.99,,2013-06-17 06:02:00,
2013-06-17 00:12:00,55.0,27.0,-100.00,SSW,195,1.0,2.0,34,0.00,,,-99.99,,2013-06-17 06:12:00,
2013-06-17 00:22:00,52.0,27.0,-100.00,West,263,1.0,2.0,35,0.00,,,-99.99,,2013-06-17 06:22:00,
2013-06-17 00:33:00,53.0,29.0,-100.00,NNW,340,3.0,7.0,40,0.00,,,-99.99,,2013-06-17 06:33:00,
2013-06-17 00:43:00,51.0,31.0,-100.00,East,83,4.0,7.0,45,0.00,,,-99.99,,2013-06-17 06:43:00,
2013-06-17 00:53:00,48.0,34.0,-100.00,SE,145,3.0,6.0,58,0.00,,,-99.99,,2013-06-17 06:53:00,
2013-06-17 01:02:00,50.0,34.0,-100.00,South,184,6.0,9.0,53,0.00,,,-99.99,,2013-06-17 07:02:00,
2013-06-17 01:12:00,53.0,34.0,-100.00,South,171,9.0,12.0,49,0.00,,,-99.99,,2013-06-17 07:12:00,
2013-06-17 01:22:00,55.0,33.0,-100.00,South,172,11.0,16.0,44,0.00,,,-99.99,,2013-06-17 07:22:00,
2013-06-17 01:33:00,56.0,32.0,-100.00,SSE,167,10.0,16.0,41,0.00,,,-99.99,,2013-06-17 07:33:00,
2013-06-17 01:42:00,56.0,31.0,-100.00,SSE,161,9.0,15.0,40,0.00,,,-99.99,,2013-06-17 07:42:00,
2013-06-17 01:52:00,55.0,31.0,-100.00,SSE,158,9.0,15.0,40,0.00,,,-99.99,,2013-06-17 07:52:00,
2013-06-17 02:01:00,55.0,31.0,-100.00,SSE,160,9.0,12.0,40,0.00,,,-99.99,,2013-06-17 08:01:00,
2013-06-17 02:11:00,56.0,31.0,-100.00,SSW,193,9.0,12.0,38,0.00,,,-99.99,,2013-06-17 08:11:00,
2013-06-17 02:22:00,57.0,31.0,-100.00,SSW,209,7.0,10.0,36,0.00,,,-99.99,,2013-06-17 08:22:00,
2013-06-17 02:33:00,56.0,30.0,-100.00,SSW,198,6.0,7.0,36,0.00,,,-99.99,,2013-06-17 08:33:00,
2013-06-17 02:43:00,57.0,30.0,-100.00,South,188,6.0,9.0,35,0.00,,,-99.99,,2013-06-17 08:43:00,
2013-06-17 02:52:00,58.0,29.0,-100.00,South,179,7.0,10.0,33,0.00,,,-99.99,,2013-06-17 08:52:00,
2013-06-17 03:02:00,58.0,29.0,-100.00,South,184,9.0,10.0,33,0.00,,,-99.99,,2013-06-17 09:02:00,
2013-06-17 03:11:00,55.0,29.0,-100.00,South,171,6.0,9.0,37,0.00,,,-99.99,,2013-06-17 09:11:00,
2013-06-17 03:22:00,54.0,31.0,-100.00,South,188,3.0,7.0,41,0.00,,,-99.99,,2013-06-17 09:22:00,
2013-06-17 03:34:00,53.0,31.0,-100.00,NNW,328,5.0,7.0,42,0.00,,,-99.99,,2013-06-17 09:34:00,
2013-06-17 03:43:00,54.0,30.0,-100.00,NNW,329,5.0,7.0,39,0.00,,,-99.99,,2013-06-17 09:43:00,
2013-06-17 03:52:00,55.0,29.0,-100.00,SW,234,4.0,7.0,37,0.00,,,-99.99,,2013-06-17 09:52:00,
2013-06-17 04:02:00,54.0,28.0,-100.00,SSW,202,1.0,2.0,36,0.00,,,-99.99,,2013-06-17 10:02:00,
2013-06-17 04:12:00,53.0,28.0,-100.00,SSE,164,2.0,6.0,37,0.00,,,-99.99,,2013-06-17 10:12:00,
2013-06-17 04:22:00,54.0,27.0,-100.00,South,181,3.0,11.0,35,0.00,,,-99.99,,2013-06-17 10:22:00,
2013-06-17 04:33:00,57.0,28.0,-100.00,SW,219,10.0,12.0,32,0.00,,,-99.99,,2013-06-17 10:33:00,
2013-06-17 04:53:00,57.0,29.0,-100.00,SSW,208,9.0,12.0,34,0.00,,,-99.99,,2013-06-17 10:53:00,
2013-06-17 05:02:00,56.0,29.0,-100.00,SSW,208,9.0,12.0,36,0.00,,,-99.99,,2013-06-17 11:02:00,
2013-06-17 05:12:00,52.0,31.0,-100.00,South,172,4.0,11.0,44,0.00,,,-99.99,,2013-06-17 11:12:00,
2013-06-17 05:23:00,52.0,31.0,-100.00,West,260,4.0,8.0,44,0.00,,,-99.99,,2013-06-17 11:23:00,
2013-06-17 05:33:00,51.0,31.0,-100.00,South,184,2.0,6.0,45,0.00,,,-99.99,,2013-06-17 11:33:00,
2013-06-17 05:43:00,51.0,31.0,-100.00,SE,130,2.0,5.0,44,0.00,,,-99.99,,2013-06-17 11:43:00,
2013-06-17 05:53:00,58.0,30.0,-100.00,SSW,212,11.0,13.0,35,0.00,,,-99.99,,2013-06-17 11:53:00,
2013-06-17 06:02:00,56.0,31.0,-100.00,SSE,168,6.0,12.0,39,0.00,,,-99.99,,2013-06-17 12:02:00,
2013-06-17 06:11:00,50.0,32.0,-100.00,East,93,5.0,11.0,49,0.00,,,-99.99,,2013-06-17 12:11:00,
2013-06-17 06:22:00,50.0,33.0,-100.00,NNE,27,4.0,6.0,52,0.00,,,-99.99,,2013-06-17 12:22:00,
2013-06-17 06:33:00,49.0,32.0,-100.00,East,97,2.0,4.0,52,0.00,,,-99.99,,2013-06-17 12:33:00,
2013-06-17 06:43:00,49.0,32.0,-100.00,SE,141,1.0,3.0,51,0.00,,,-99.99,,2013-06-17 12:43:00,
2013-06-17 06:53:00,51.0,33.0,-100.00,SW,226,1.0,3.0,49,0.00,,,-99.99,,2013-06-17 12:53:00,
2013-06-17 07:01:00,55.0,32.0,-100.00,SW,233,2.0,5.0,41,0.00,,,-99.99,,2013-06-17 13:01:00,
2013-06-17 07:22:00,56.0,35.0,-100.00,ENE,65,2.0,4.0,45,0.00,,,-99.99,,2013-06-17 13:22:00,
2013-06-17 07:32:00,56.0,34.0,-100.00,East,93,4.0,7.0,43,0.00,,,-99.99,,2013-06-17 13:32:00,
2013-06-17 07:52:00,58.0,32.0,-100.00,SE,127,2.0,5.0,36,0.00,,,-99.99,,2013-06-17 13:52:00,
2013-06-17 08:02:00,59.0,32.0,-100.00,East,96,3.0,5.0,36,0.00,,,-99.99,,2013-06-17 14:02:00,
2013-06-17 08:12:00,59.0,32.0,-100.00,East,93,3.0,5.0,35,0.00,,,-99.99,,2013-06-17 14:12:00,
2013-06-17 08:22:00,60.0,33.0,-100.00,ENE,59,4.0,7.0,37,0.00,,,-99.99,,2013-06-17 14:22:00,
2013-06-17 08:34:00,59.0,37.0,-100.00,East,86,9.0,13.0,44,0.00,,,-99.99,,2013-06-17 14:34:00,
2013-06-17 08:43:00,59.0,38.0,-100.00,East,90,10.0,13.0,46,0.00,,,-99.99,,2013-06-17 14:43:00,
2013-06-17 08:53:00,57.0,39.0,-100.00,East,90,9.0,12.0,51,0.00,,,-99.99,,2013-06-17 14:53:00,
2013-06-17 09:01:00,58.0,39.0,-100.00,East,100,8.0,12.0,49,0.00,,,-99.99,,2013-06-17 15:01:00,
2013-06-17 09:12:00,60.0,41.0,-100.00,ESE,116,6.0,11.0,50,0.00,,,-99.99,,2013-06-17 15:12:00,
2013-06-17 09:22:00,60.0,40.0,-100.00,ESE,113,7.0,11.0,48,0.00,,,-99.99,,2013-06-17 15:22:00,
2013-06-17 09:33:00,61.0,41.0,-100.00,ESE,106,7.0,12.0,48,0.00,,,-99.99,,2013-06-17 15:33:00,
2013-06-17 09:43:00,61.0,44.0,-100.00,East,95,6.0,11.0,54,0.00,,,-99.99,,2013-06-17 15:43:00,
2013-06-17 09:52:00,61.0,44.0,-100.00,ENE,69,8.0,13.0,55,0.00,,,-99.99,,2013-06-17 15:52:00,
2013-06-17 10:02:00,62.0,44.0,-100.00,East,85,8.0,12.0,51,0.00,,,-99.99,,2013-06-17 16:02:00,
2013-06-17 10:22:00,64.0,41.0,-100.00,East,82,7.0,12.0,44,0.00,,,-99.99,,2013-06-17 16:22:00,
2013-06-17 10:33:00,65.0,38.0,-100.00,East,89,7.0,12.0,38,0.00,,,-99.99,,2013-06-17 16:33:00,
2013-06-17 10:43:00,65.0,38.0,-100.00,ESE,103,6.0,12.0,37,0.00,,,-99.99,,2013-06-17 16:43:00,
2013-06-17 10:53:00,66.0,37.0,-100.00,SE,127,5.0,9.0,34,0.00,,,-99.99,,2013-06-17 16:53:00,
2013-06-17 11:02:00,66.0,36.0,-100.00,ESE,110,4.0,10.0,34,0.00,,,-99.99,,2013-06-17 17:02:00,
2013-06-17 11:12:00,67.0,37.0,-100.00,East,95,2.0,7.0,33,0.00,,,-99.99,,2013-06-17 17:12:00,
2013-06-17 11:22:00,66.0,37.0,-100.00,NNE,28,6.0,11.0,33,0.00,,,-99.99,,2013-06-17 17:22:00,
2013-06-17 11:33:00,66.0,37.0,-100.00,North,8,8.0,12.0,35,0.00,,,-99.99,,2013-06-17 17:33:00,
2013-06-17 11:43:00,67.0,39.0,-100.00,NNE,20,7.0,11.0,36,0.00,,,-99.99,,2013-06-17 17:43:00,
2013-06-17 11:52:00,66.0,37.0,-100.00,North,4,7.0,12.0,34,0.00,,,-99.99,,2013-06-17 17:52:00,
2013-06-17 12:02:00,67.0,41.0,-100.00,North,1,6.0,12.0,40,0.00,,,-99.99,,2013-06-17 18:02:00,
2013-06-17 12:12:00,67.0,40.0,-100.00,North,7,8.0,12.0,38,0.00,,,-99.99,,2013-06-17 18:12:00,
2013-06-17 12:23:00,67.0,42.0,-100.00,NNE,14,6.0,11.0,40,0.00,,,-99.99,,2013-06-17 18:23:00,
2013-06-17 12:33:00,67.0,38.0,-100.00,NE,48,7.0,11.0,34,0.00,,,-99.99,,2013-06-17 18:33:00,
2013-06-17 12:43:00,68.0,41.0,-100.00,NE,55,6.0,10.0,37,0.00,,,-99.99,,2013-06-17 18:43:00,
2013-06-17 12:53:00,68.0,39.0,-100.00,NNE,13,7.0,14.0,34,0.00,,,-99.99,,2013-06-17 18:53:00,
2013-06-17 13:02:00,68.0,39.0,-100.00,North,354,7.0,12.0,34,0.00,,,-99.99,,2013-06-17 19:02:00,
2013-06-17 13:11:00,70.0,38.0,-100.00,NNW,337,6.0,12.0,31,0.00,,,-99.99,,2013-06-17 19:11:00,
2013-06-17 13:22:00,69.0,42.0,-100.00,North,10,7.0,14.0,37,0.00,,,-99.99,,2013-06-17 19:22:00,
2013-06-17 13:33:00,71.0,37.0,-100.00,North,352,9.0,17.0,28,0.00,,,-99.99,,2013-06-17 19:33:00,
2013-06-17 13:43:00,69.0,38.0,-100.00,NNW,347,10.0,17.0,32,0.00,,,-99.99,,2013-06-17 19:43:00,
2013-06-17 13:53:00,72.0,20.0,-100.00,WNW,301,11.0,21.0,14,0.00,,,-99.99,,2013-06-17 19:53:00,
2013-06-17 14:02:00,72.0,27.0,-100.00,WNW,301,11.0,21.0,19,0.00,,,-99.99,,2013-06-17 20:02:00,
2013-06-17 14:11:00,71.0,27.0,-100.00,WNW,296,12.0,21.0,19,0.00,,,-99.99,,2013-06-17 20:11:00,
2013-06-17 14:22:00,70.0,24.0,-100.00,NNW,333,10.0,17.0,18,0.00,,,-99.99,,2013-06-17 20:22:00,
2013-06-17 14:43:00,72.0,24.0,-100.00,WNW,291,9.0,21.0,16,0.00,,,-99.99,,2013-06-17 20:43:00,
2013-06-17 14:52:00,73.0,20.0,-100.00,WNW,284,7.0,21.0,13,0.00,,,-99.99,,2013-06-17 20:52:00,
2013-06-17 15:01:00,74.0,19.0,-100.00,NW,326,11.0,21.0,13,0.00,,,-99.99,,2013-06-17 21:01:00,
2013-06-17 15:22:00,72.0,35.0,-100.00,NE,41,12.0,19.0,26,0.00,,,-99.99,,2013-06-17 21:22:00,
2013-06-17 15:33:00,73.0,32.0,-100.00,ENE,78,6.0,12.0,22,0.00,,,-99.99,,2013-06-17 21:33:00,
2013-06-17 15:43:00,71.0,39.0,-100.00,ESE,117,11.0,27.0,31,0.00,,,-99.99,,2013-06-17 21:43:00,
2013-06-17 15:52:00,70.0,38.0,-100.00,SE,126,9.0,17.0,31,0.00,,,-99.99,,2013-06-17 21:52:00,
2013-06-17 16:01:00,70.0,37.0,-100.00,SE,131,9.0,16.0,29,0.00,,,-99.99,,2013-06-17 22:01:00,
2013-06-17 16:11:00,70.0,36.0,-100.00,SE,134,11.0,19.0,29,0.00,,,-99.99,,2013-06-17 22:11:00,
2013-06-17 16:22:00,70.0,37.0,-100.00,SE,130,9.0,19.0,29,0.00,,,-99.99,,2013-06-17 22:22:00,
2013-06-17 16:33:00,69.0,36.0,-100.00,ESE,120,7.0,16.0,30,0.00,,,-99.99,,2013-06-17 22:33:00,
2013-06-17 16:43:00,69.0,37.0,-100.00,East,95,7.0,14.0,31,0.00,,,-99.99,,2013-06-17 22:43:00,
2013-06-17 16:53:00,71.0,35.0,-100.00,ESE,109,7.0,12.0,26,0.00,,,-99.99,,2013-06-17 22:53:00,
2013-06-17 17:02:00,71.0,35.0,-100.00,East,100,4.0,7.0,27,0.00,,,-99.99,,2013-06-17 23:02:00,
2013-06-17 17:11:00,72.0,35.0,-100.00,East,88,7.0,15.0,26,0.00,,,-99.99,,2013-06-17 23:11:00,
2013-06-17 17:22:00,72.0,34.0,-100.00,NE,44,6.0,11.0,25,0.00,,,-99.99,,2013-06-17 23:22:00,
2013-06-17 17:32:00,71.0,34.0,-100.00,SE,133,6.0,14.0,25,0.00,,,-99.99,,2013-06-17 23:32:00,
2013-06-17 17:42:00,70.0,33.0,-100.00,SSE,164,4.0,11.0,25,0.00,,,-99.99,,2013-06-17 23:42:00,
2013-06-17 17:52:00,71.0,33.0,-100.00,SW,224,5.0,10.0,25,0.00,,,-99.99,,2013-06-17 23:52:00,
2013-06-17 18:01:00,72.0,32.0,-100.00,SSE,161,4.0,7.0,23,0.00,,,-99.99,,2013-06-18 00:01:00,
2013-06-17 18:12:00,71.0,33.0,-100.00,SE,141,6.0,14.0,25,0.00,,,-99.99,,2013-06-18 00:12:00,
2013-06-17 18:22:00,72.0,31.0,-100.00,SE,144,6.0,12.0,22,0.00,,,-99.99,,2013-06-18 00:22:00,
2013-06-17 18:33:00,71.0,32.0,-100.00,SSE,148,4.0,9.0,23,0.00,,,-99.99,,2013-06-18 00:33:00,
2013-06-17 18:43:00,72.0,30.0,-100.00,SSE,152,4.0,9.0,21,0.00,,,-99.99,,2013-06-18 00:43:00,
2013-06-17 18:52:00,71.0,32.0,-100.00,SE,133,6.0,13.0,24,0.00,,,-99.99,,2013-06-18 00:52:00,
2013-06-17 19:01:00,70.0,34.0,-100.00,East,97,6.0,10.0,26,0.00,,,-99.99,,2013-06-18 01:01:00,
2013-06-17 19:11:00,70.0,32.0,-100.00,ESE,104,6.0,11.0,25,0.00,,,-99.99,,2013-06-18 01:11:00,
2013-06-17 19:23:00,68.0,34.0,-100.00,East,99,11.0,19.0,28,0.00,,,-99.99,,2013-06-18 01:23:00,
2013-06-17 19:34:00,66.0,36.0,-100.00,East,79,16.0,24.0,32,0.00,,,-99.99,,2013-06-18 01:34:00,
2013-06-17 19:44:00,66.0,35.0,-100.00,East,79,17.0,24.0,32,0.00,,,-99.99,,2013-06-18 01:44:00,
2013-06-17 19:53:00,65.0,36.0,-100.00,ESE,104,14.0,18.0,34,0.00,,,-99.99,,2013-06-18 01:53:00,
2013-06-17 20:02:00,65.0,36.0,-100.00,ESE,107,13.0,19.0,34,0.00,,,-99.99,,2013-06-18 02:02:00,
2013-06-17 20:11:00,64.0,38.0,-100.00,SE,127,7.0,14.0,38,0.00,,,-99.99,,2013-06-18 02:11:00,
2013-06-17 20:22:00,63.0,36.0,-100.00,SSE,154,9.0,14.0,37,0.00,,,-99.99,,2013-06-18 02:22:00,
2013-06-17 20:34:00,63.0,36.0,-100.00,SSE,158,9.0,13.0,37,0.00,,,-99.99,,2013-06-18 02:34:00,
2013-06-17 20:43:00,63.0,36.0,-100.00,SE,144,6.0,12.0,37,0.00,,,-99.99,,2013-06-18 02:43:00,
2013-06-17 20:53:00,63.0,37.0,-100.00,ESE,109,4.0,6.0,37,0.00,,,-99.99,,2013-06-18 02:53:00,
2013-06-17 21:02:00,62.0,36.0,-100.00,SE,130,6.0,12.0,37,0.00,,,-99.99,,2013-06-18 03:02:00,
2013-06-17 21:12:00,62.0,35.0,-100.00,SE,143,12.0,15.0,37,0.00,,,-99.99,,2013-06-18 03:12:00,
2013-06-17 21:23:00,61.0,35.0,-100.00,SSE,155,10.0,14.0,37,0.00,,,-99.99,,2013-06-18 03:23:00,
2013-06-17 21:34:00,61.0,35.0,-100.00,SSE,152,11.0,15.0,38,0.00,,,-99.99,,2013-06-18 03:34:00,
2013-06-17 21:43:00,60.0,35.0,-100.00,SSE,148,12.0,17.0,39,0.00,,,-99.99,,2013-06-18 03:43:00,
2013-06-17 21:53:00,60.0,34.0,-100.00,SE,143,13.0,19.0,38,0.00,,,-99.99,,2013-06-18 03:53:00,
2013-06-17 22:02:00,60.0,34.0,-100.00,SE,143,13.0,18.0,39,0.00,,,-99.99,,2013-06-18 04:02:00,
2013-06-17 22:12:00,59.0,34.0,-100.00,SE,143,14.0,17.0,38,0.00,,,-99.99,,2013-06-18 04:12:00,
2013-06-17 22:22:00,59.0,35.0,-100.00,SSE,151,12.0,17.0,41,0.00,,,-99.99,,2013-06-18 04:22:00,
2013-06-17 22:34:00,59.0,37.0,-100.00,SSE,151,14.0,19.0,43,0.00,,,-99.99,,2013-06-18 04:34:00,
2013-06-17 22:43:00,58.0,35.0,-100.00,SSE,150,11.0,17.0,42,0.00,,,-99.99,,2013-06-18 04:43:00,
2013-06-17 22:53:00,59.0,34.0,-100.00,SSE,147,14.0,20.0,39,0.00,,,-99.99,,2013-06-18 04:53:00,
2013-06-17 23:02:00,59.0,34.0,-100.00,SE,145,16.0,20.0,40,0.00,,,-99.99,,2013-06-18 05:02:00,
2013-06-17 23:12:00,58.0,38.0,-100.00,SE,143,17.0,27.0,48,0.00,,,-99.99,,2013-06-18 05:12:00,
2013-06-17 23:22:00,56.0,42.0,-100.00,SSE,154,19.0,24.0,60,0.00,,,-99.99,,2013-06-18 05:22:00,
2013-06-17 23:33:00,55.0,43.0,-100.00,SE,145,17.0,22.0,64,0.00,,,-99.99,,2013-06-18 05:33:00,
2013-06-17 23:43:00,55.0,43.0,-100.00,SE,138,14.0,20.0,65,0.00,,,-99.99,,2013-06-18 05:43:00,
2013-06-17 23:53:00,54.0,43.0,-100.00,SSE,148,14.0,18.0,68,0.00,,,-99.99,,2013-06-18 05:53:00,